CubeBel-2 (EU11S)
1 57175U 23091K   26218.55118888  .00006905  00000-0  23791-3 0  9998
2 57175  97.5014 282.2496 0007746 299.3224  60.7242 15.30322875172008
RS-38S
1 57189U 23091Z   26218.47992751  .00009745  00000-0  26676-3 0  9993
2 57189  97.5055 289.0188 0005673 240.1419 119.9262 15.37536732172418
SONATE-2
1 59112U 24043Q   26218.40785402  .00030801  00000-0  34529-3 0  9998
2 59112  97.5577  12.0483 0005431  24.2348 335.9164 15.62614313135725
GRBBeta
1 60237U 24128C   26218.58840830  .00002495  00000-0  17839-3 0  9991
2 60237  61.9900  39.3903 0033844 145.6965 214.6324 15.06957794113864
Curium One
1 60242U 24128H   26218.60170532  .00004650  00000-0  27005-3 0  9996
2 60242  61.9791  27.1248 0032956 141.8367 218.5072 15.13182215114086
ROBUSTA-3A
1 60243U 24128J   26218.59556486  .00004222  00000-0  25214-3 0  9996
2 60243  61.9869  29.9014 0034790 138.7802 221.5931 15.12300708114043
CatSat
1 60246U 24125J   26218.56116600  .00051081  00000-0  50895-3 0  9991
2 60246  97.2038  71.9463 0016082 359.0117   1.1109 15.65369947115253
HYPERVIEW-1G (RS66S)
1 61772U 24199AP  26218.74790992  .00354991  56115-4  65293-3 0  9995
2 61772  97.2648 101.7221 0006628 148.6435 211.5240 16.01229095142689
AO-123
1 61781U 24199AY  26218.58788417  .00004782  00000-0  13669-3 0  9994
2 61781  97.2932  86.8092 0015154 123.6476 236.6217 15.36358826141667
LASARsat
1 62391U 24247Q   26217.79806333  .00024661  00000-0  44191-3 0  9998
2 62391  44.9745 342.7954 0009785 294.4100  65.5769 15.49513628 91001
CroCube
1 62394U 24247T   26218.56465748  .00026240  00000-0  43076-3 0  9994
2 62394  44.9717 334.8770 0009911 305.7540  54.2430 15.51949976 91165
JINJUSat 1B
1 63210U 25052A   26218.43057675  .00008891  00000-0  26399-3 0  9990
2 63210  97.3930 115.2898 0000913 241.0134 119.1018 15.35025013 77805
NUSHSAT 1
1 63211U 25052B   26218.51727316  .00012138  00000-0  32782-3 0  9998
2 63211  97.3905 116.1296 0000346 232.9457 127.1756 15.37901435 77875
TEVEL2-4
1 63213U 25052D   26218.62279951  .00010220  00000-0  29066-3 0  9990
2 63213  97.3829 115.1412 0000594   6.8402 353.2850 15.36337016 77856
TEVEL2-5
1 63214U 25052E   26218.45397693  .00011014  00000-0  31510-3 0  9995
2 63214  97.3820 114.9041 0000691  10.1385 349.9872 15.36131046 77827
TEVEL2-6
1 63215U 25052F   26218.46746353  .00010698  00000-0  30650-3 0  9999
2 63215  97.3828 114.9025 0000687  22.9371 337.1904 15.36094928 77821
TEVEL2-1
1 63217U 25052H   26218.51496187  .00010098  00000-0  29497-3 0  9995
2 63217  97.3803 114.5121 0001436  10.3246 349.8027 15.35500869 77814
TEVEL2-3
1 63218U 25052J   26218.44241395  .00010324  00000-0  30086-3 0  9995
2 63218  97.3805 114.4686 0001428  22.8102 337.3205 15.35567681 77806
TEVEL2-2
1 63219U 25052K   26218.44975199  .00010514  00000-0  30689-3 0  9992
2 63219  97.3801 114.4503 0001517   9.0599 351.0672 15.35512870 77808
TEVEL2-9
1 63237U 25052AD  26218.62467533  .00008819  00000-0  27549-3 0  9996
2 63237  97.3862 113.8868 0004687 345.3028  14.8077 15.33405296 77754
TEVEL2-7
1 63238U 25052AE  26218.61062058  .00009021  00000-0  28469-3 0  9997
2 63238  97.3865 113.7662 0004838 344.4783  15.6310 15.33070427 77747
TEVEL2-8
1 63239U 25052AF  26217.64026577  .00010981  00000-0  34627-3 0  9996
2 63239  97.3865 112.7721 0004977 349.9084  10.2057 15.33040472 77590
SPIRONE
1 66657U 25274H   26218.76684529  .00001346  00000-0  13237-3 0  9999
2 66657  97.7468 147.3393 0011289 198.7929 161.2876 14.93732882 37771
K-HERO
1 66660U 25274L   26218.35577063  .00001538  00000-0  14892-3 0  9993
2 66660  97.7478 147.1318 0013022 205.6493 154.4083 14.94132795 37729
SNUGLITE-III DURI
1 66661U 25274M   26218.34254372  .00001227  00000-0  11986-3 0  9994
2 66661  97.7473 147.1395 0013670 207.1561 152.8946 14.94150529 37727
SAKHACUBE-CHOLBON
1 67290U 25313AU  26218.14942161  .00006138  00000-0  24318-3 0  9994
2 67290  97.3900 292.5815 0009614 169.9703 190.1729 15.25736298 33598
RS95S (QMR-KWT-2)
1 67291U 25313AV  26217.75804599  .00009436  00000-0  35273-3 0  9999
2 67291  97.3898 292.4865 0009294 169.0510 191.0933 15.27520768 33558
Ten-Koh2
1 68261U 25241B   26218.63410996  .00004171  00000-0  18115-3 0  9996
2 68261  51.6558  79.4336 0005512 304.7357  55.3101 15.24438602 22609
JACK-002
1 68417U 26067B   26218.40139792  .00003390  00000-0  16073-3 0  9996
2 68417  97.4599 176.4010 0004112  96.3845 263.7859 15.19966450 19571
DISCO 2
1 68431U 26067R   26218.43086866  .00004990  00000-0  23632-3 0  9994
2 68431  97.4631 176.4216 0003050 133.9683 226.1804 15.19781180 19578
HADES-SA (SpinnyONE)
1 68446U 26067AG  26217.86266820  .00010089  00000-0  46179-3 0  9993
2 68446  97.4430 175.4798 0003876 255.4969 104.5837 15.20698757 19471
PARUS-6U1
1 68456U 26067AS  26218.42581859  .00003490  00000-0  17495-3 0  9996
2 68456  97.4584 176.0434 0003697 238.5921 121.4952 15.18006095 19557
SAL-E
1 68458U 26067AU  26218.41019024  .00004097  00000-0  20226-3 0  9997
2 68458  97.4507 175.9395 0003634 252.6063 107.4774 15.18437119 19554
FSI-SAT 2
1 68792U 26088A   26218.34980384  .00002474  00000-0  16824-3 0  9995
2 68792  97.5136   6.3801 0012857 298.8346  61.1591 15.07194271 15844
OrigamiSat 2
1 68795U 26088D   26218.35080659  .00006480  00000-0  40433-3 0  9999
2 68795  97.5128   6.6873 0013549 264.9334  95.0349 15.09772608 15867
ARICA 2
1 68796U 26088E   26218.37174731  .00002735  00000-0  17769-3 0  9992
2 68796  97.5119   6.6438 0014149 265.9997  93.9614 15.08782024 15862
WASEDA-SAT-ZERO-II
1 68797U 26088F   26218.35781915  .00003915  00000-0  25010-3 0  9998
2 68797  97.5120   6.6591 0013931 265.3192  94.6446 15.09148357 15861
MANGARO-II-Piscus
1 68798U 26088G   26218.34666750  .00002390  00000-0  15428-3 0  9995
2 68798  97.5134   6.6879 0017341 269.0334  90.8908 15.09103554 15865
MARINA
1 69920U 26156BD  26218.45475072  .00001374  00000-0  14088-3 0  9998
2 69920  97.7497 118.4205 0008882  60.7179 299.4926 14.92035045  4499
IO-86
1 40931U          26199.45381863  .00000000  00000-0  77536-4 0    07
2 40931   6.0006 322.6653 0012733 338.8432 273.6875 14.79294310    03
LILIUM-4                
1 71922C 26067AC  26089.50133053 -.00014632  00000+0 -74472-3 0    04
2 71922  97.4497  49.1617 0004341   5.9603 355.7042 15.16896692    16
